�N����,����,�~����,�C��,���x,�C��,����,���ϕ���,�ő�u�ԕ���,�ő厞����,���˗�,�I�_���x,�n�����x,�ő啗���N��,DTYPE
"22/10/07","00:10",0.0,14.6,87.2,1012.8,305.2,1.0,1.6,337.0,0.00,12.5,19.7,"00:01:04",1
"22/10/07","00:20",0.0,14.5,87.4,1012.6,297.3,1.1,1.7,299.1,0.00,12.5,19.8,"00:16:48",1
"22/10/07","00:30",0.0,14.6,87.5,1012.6,276.6,1.0,1.4,286.8,0.00,12.6,19.8,"00:20:24",1
"22/10/07","00:40",0.0,14.6,87.4,1012.6,288.9,1.1,1.7,314.9,0.00,12.6,19.6,"00:35:20",1
"22/10/07","00:50",0.0,14.6,87.3,1012.6,302.5,1.1,1.8,324.0,0.00,12.6,19.8,"00:41:44",1
"22/10/07","01:00",0.0,14.8,87.3,1012.6,307.1,1.2,1.9,320.1,0.00,12.8,19.7,"00:56:24",1
"22/10/07","01:10",0.0,14.9,87.4,1012.3,280.4,1.0,1.3,257.7,0.00,12.9,19.7,"01:06:32",1
"22/10/07","01:20",0.0,15.0,87.0,1012.1,306.2,1.2,2.0,308.4,0.00,12.9,19.7,"01:18:16",1
"22/10/07","01:30",0.0,15.2,86.9,1012.1,293.4,0.6,1.3,321.1,0.00,13.1,19.7,"01:21:12",1
"22/10/07","01:40",0.0,15.2,86.9,1012.1,313.0,1.1,1.6,319.0,0.00,13.1,19.7,"01:37:36",1
"22/10/07","01:50",0.0,15.2,87.2,1012.1,311.6,1.3,1.8,322.9,0.00,13.1,19.8,"01:47:36",1
"22/10/07","02:00",0.0,15.1,87.5,1012.1,304.2,0.7,1.3,314.1,0.00,13.1,19.7,"01:50:16",1
"22/10/07","02:10",0.0,15.2,87.9,1012.1,328.9,1.0,1.6,335.7,0.00,13.2,19.6,"02:07:12",1
"22/10/07","02:20",0.0,15.1,88.1,1012.1,293.1,1.0,1.3,324.9,0.00,13.2,19.7,"02:10:24",1
"22/10/07","02:30",0.0,15.2,88.4,1012.1,295.5,0.3,1.1,270.8,0.00,13.3,19.6,"02:24:08",1
"22/10/07","02:40",0.0,15.1,88.7,1011.9,287.0,0.5,1.0,266.6,0.00,13.3,19.7,"02:36:24",1
"22/10/07","02:50",0.0,15.1,89.0,1011.9,300.5,0.8,1.6,319.3,0.00,13.3,19.6,"02:42:40",1
"22/10/07","03:00",0.0,15.3,89.4,1011.6,324.3,1.5,1.9,340.9,0.00,13.6,19.7,"02:51:20",1
"22/10/07","03:10",0.0,15.2,89.7,1011.6,300.3,0.7,1.3,331.7,0.00,13.6,19.6,"03:00:08",1
"22/10/07","03:20",0.2,15.1,90.0,1011.6,292.8,1.1,1.8,315.7,0.00,13.5,19.6,"03:17:12",1
"22/10/07","03:30",0.0,15.1,90.1,1011.6,295.1,1.1,1.8,316.6,0.00,13.5,19.7,"03:20:56",1
"22/10/07","03:40",0.2,15.0,90.3,1011.6,303.7,1.1,1.6,309.6,0.00,13.5,19.6,"03:36:08",1
"22/10/07","03:50",0.2,15.0,90.5,1011.4,298.6,1.1,1.3,331.8,0.00,13.5,19.7,"03:41:28",1
"22/10/07","04:00",0.0,15.0,90.6,1011.2,299.3,1.0,1.6,325.0,0.00,13.5,19.7,"03:54:16",1
"22/10/07","04:10",0.2,14.9,90.8,1011.4,293.6,1.1,1.7,332.7,0.00,13.5,19.7,"04:04:56",1
"22/10/07","04:20",0.0,15.0,91.0,1010.9,306.9,1.3,1.8,318.7,0.00,13.6,19.7,"04:16:32",1
"22/10/07","04:30",0.0,14.8,91.2,1011.2,281.5,1.0,1.7,309.9,0.00,13.4,19.4,"04:27:28",1
"22/10/07","04:40",0.2,14.8,91.4,1010.9,289.5,1.0,1.7,321.8,0.00,13.5,19.5,"04:30:24",1
"22/10/07","04:50",0.2,14.9,91.7,1011.2,298.5,1.1,1.4,321.6,0.00,13.6,19.6,"04:45:20",1
"22/10/07","05:00",0.2,14.8,91.8,1010.9,290.8,0.8,1.2,308.3,0.00,13.5,19.5,"04:50:16",1
"22/10/07","05:10",0.4,14.9,91.9,1010.9,290.1,1.0,1.9,311.3,0.00,13.6,19.3,"05:05:28",1
"22/10/07","05:20",0.6,14.8,92.2,1011.2,309.9,1.2,1.8,328.4,0.00,13.6,19.4,"05:10:02",1
"22/10/07","05:30",0.8,14.9,92.4,1011.2,318.1,1.3,1.9,343.2,0.00,13.7,19.6,"05:24:48",1
"22/10/07","05:40",0.6,14.7,92.7,1010.9,272.8,0.8,1.3,266.7,0.00,13.6,19.6,"05:37:04",1
"22/10/07","05:50",0.2,14.8,92.8,1010.7,275.7,0.8,1.2,257.9,0.00,13.7,19.5,"05:42:48",1
"22/10/07","06:00",0.6,14.8,93.0,1011.2,283.5,1.0,1.3,261.7,0.00,13.7,19.6,"05:59:38",1
"22/10/07","06:10",0.8,14.8,93.1,1010.9,296.9,1.2,1.9,333.5,0.00,13.7,19.4,"06:07:38",1
"22/10/07","06:20",0.6,14.9,93.4,1011.2,280.3,1.1,1.6,317.8,0.00,13.9,19.4,"06:10:24",1
"22/10/07","06:30",0.6,14.8,93.5,1010.9,276.0,1.1,2.1,246.4,0.00,13.8,19.5,"06:22:16",1
"22/10/07","06:40",0.8,14.9,93.7,1010.4,275.5,0.8,1.2,266.5,0.00,13.9,19.5,"06:39:00",1
"22/10/07","06:50",0.6,14.9,93.8,1010.7,288.4,0.8,1.1,313.2,0.00,14.0,19.2,"06:43:32",1
"22/10/07","07:00",0.6,14.9,94.0,1010.7,314.6,1.2,1.4,343.0,0.00,14.0,19.4,"06:56:28",1
"22/10/07","07:10",0.4,14.9,94.1,1010.2,300.3,1.1,1.7,325.1,0.00,14.0,19.5,"07:09:58",1
"22/10/07","07:20",0.8,15.0,94.2,1010.7,300.4,1.2,1.9,318.3,0.00,14.1,19.2,"07:10:32",1
"22/10/07","07:30",0.6,15.0,94.4,1010.4,299.8,1.1,1.6,318.3,0.00,14.1,19.4,"07:26:48",1
"22/10/07","07:40",0.6,15.1,94.6,1010.2,308.8,1.5,2.4,334.3,0.00,14.3,19.4,"07:33:44",1
"22/10/07","07:50",0.4,15.2,94.7,1010.2,272.8,1.2,2.0,302.7,0.00,14.4,19.3,"07:42:08",1
"22/10/07","08:00",1.0,15.3,94.9,1010.2,281.0,1.2,1.9,270.4,0.00,14.5,19.3,"07:55:28",1
"22/10/07","08:10",1.2,15.4,94.9,1010.7,289.7,1.5,2.5,328.3,0.00,14.6,19.2,"08:07:40",1
"22/10/07","08:20",0.8,15.5,95.1,1010.4,292.0,1.3,2.4,305.5,0.00,14.8,19.3,"08:11:04",1
"22/10/07","08:30",1.0,15.6,95.2,1010.4,304.3,1.3,2.1,330.6,0.00,14.9,19.2,"08:26:08",1
"22/10/07","08:40",1.0,15.6,95.3,1010.0,282.2,1.0,1.6,315.7,0.00,14.9,19.0,"08:39:48",1
"22/10/07","08:50",1.0,15.8,95.4,1010.2,271.3,1.3,2.1,244.7,0.00,15.1,19.0,"08:48:24",1
"22/10/07","09:00",1.2,15.8,95.5,1010.7,264.6,1.0,1.6,266.7,0.00,15.1,19.1,"08:51:20",1
"22/10/07","09:10",1.2,15.9,95.5,1010.4,260.2,0.5,0.8,254.5,0.00,15.2,19.1,"09:00:08",1
"22/10/07","09:20",0.8,16.0,95.5,1010.4,261.2,0.3,1.0,262.3,0.00,15.3,19.1,"09:16:14",1
"22/10/07","09:30",0.8,16.1,95.6,1010.4,320.4,1.1,1.4,319.4,0.00,15.4,19.0,"09:28:10",1
"22/10/07","09:40",0.8,16.1,95.7,1010.4,314.8,0.7,1.3,309.3,0.00,15.5,18.9,"09:39:12",1
"22/10/07","09:50",1.0,16.1,95.8,1010.4,304.6,1.0,1.6,315.6,0.01,15.5,19.1,"09:49:56",1
"22/10/07","10:00",0.8,16.2,95.9,1010.4,273.6,1.2,1.6,307.4,0.00,15.6,19.1,"09:50:50",1
"22/10/07","10:10",1.0,16.3,96.0,1010.4,279.3,0.6,1.0,266.8,0.01,15.7,19.0,"10:00:54",1
"22/10/07","10:20",0.6,16.4,96.0,1010.4,316.7,0.8,1.3,323.1,0.02,15.8,18.9,"10:17:24",1
"22/10/07","10:30",0.8,16.3,96.1,1010.4,244.7,0.7,1.6,242.6,0.01,15.7,19.0,"10:29:06",1
"22/10/07","10:40",0.4,16.4,96.1,1009.5,208.0,0.3,0.9,134.5,0.02,15.8,19.0,"10:36:46",1
"22/10/07","10:50",0.4,16.6,96.1,1010.0,299.0,0.6,1.1,299.9,0.03,16.0,19.1,"10:48:12",1
"22/10/07","11:00",0.6,16.6,96.2,1009.7,259.2,0.5,0.9,250.7,0.02,16.0,19.1,"10:51:18",1
"22/10/07","11:10",0.8,16.4,96.2,1009.7,219.1,0.7,1.6,132.5,0.01,15.8,18.8,"11:09:36",1
"22/10/07","11:20",0.8,16.5,96.4,1009.7,229.9,0.6,1.3,224.0,0.01,16.0,18.8,"11:17:50",1
"22/10/07","11:30",0.4,16.4,96.4,1009.7,225.5,1.0,2.1,231.2,0.01,15.9,18.9,"11:28:44",1
"22/10/07","11:40",0.6,16.4,96.4,1009.7,208.5,0.7,1.4,239.0,0.03,15.9,18.9,"11:30:40",1
"22/10/07","11:50",0.2,16.6,96.5,1009.3,249.0,0.3,0.8,238.4,0.04,16.1,18.9,"11:40:08",1
"22/10/07","12:00",0.2,16.5,96.5,1009.5,239.9,0.6,1.3,201.4,0.02,16.0,18.9,"11:52:58",1
"22/10/07","12:10",0.4,16.5,96.6,1009.3,242.2,0.8,1.8,224.0,0.01,16.0,18.8,"12:07:14",1
"22/10/07","12:20",0.8,16.3,96.6,1009.3,234.5,1.2,2.2,239.8,0.02,15.8,18.9,"12:13:26",1
"22/10/07","12:30",0.6,16.5,96.6,1009.3,242.6,0.7,1.4,244.9,0.03,16.0,18.9,"12:26:38",1
"22/10/07","12:40",0.6,16.5,96.7,1008.6,248.2,0.7,2.0,247.0,0.02,16.0,18.8,"12:30:48",1
"22/10/07","12:50",0.8,16.7,96.7,1009.5,276.2,0.7,1.3,246.8,0.05,16.2,18.8,"12:44:32",1
"22/10/07","13:00",0.4,16.6,96.7,1008.3,271.2,0.7,1.4,245.4,0.04,16.1,19.0,"12:54:24",1
"22/10/07","13:10",0.4,16.7,96.8,1008.3,278.0,1.0,1.8,247.1,0.04,16.2,19.1,"13:01:04",1
"22/10/07","13:20",0.4,16.6,96.6,1008.1,242.1,0.6,1.4,230.6,0.05,16.1,19.1,"13:19:12",1
"22/10/07","13:30",0.4,16.5,96.8,1008.3,275.6,0.7,1.3,260.9,0.02,16.0,19.1,"13:21:12",1
"22/10/07","13:40",0.2,16.4,96.8,1008.6,233.3,0.5,1.1,234.6,0.02,15.9,19.0,"13:34:32",1
"22/10/07","13:50",0.4,16.5,96.8,1008.1,262.9,0.6,1.4,249.9,0.03,16.0,19.2,"13:49:52",1
"22/10/07","14:00",0.6,16.5,96.9,1008.3,257.2,0.7,1.4,248.3,0.02,16.0,19.0,"13:58:58",1
"22/10/07","14:10",0.6,16.5,96.9,1008.3,285.4,0.5,1.2,249.8,0.02,16.0,19.2,"14:06:24",1
"22/10/07","14:20",0.8,16.5,97.0,1007.6,267.2,0.7,1.3,247.2,0.02,16.1,19.0,"14:16:00",1
"22/10/07","14:30",0.8,16.4,96.9,1008.1,246.1,0.7,1.2,206.8,0.02,15.9,19.1,"14:23:36",1
"22/10/07","14:40",0.4,16.2,97.0,1007.8,229.5,1.0,1.9,200.5,0.01,15.8,19.1,"14:36:00",1
"22/10/07","14:50",0.6,16.3,97.0,1007.6,274.6,0.8,1.6,338.9,0.02,15.9,19.0,"14:49:52",1
"22/10/07","15:00",0.4,16.3,97.0,1007.6,274.0,0.8,1.6,340.7,0.01,15.9,19.0,"14:50:08",1
"22/10/07","15:10",0.2,16.4,97.1,1008.3,279.3,0.8,1.4,316.9,0.01,16.0,18.9,"15:04:48",1
"22/10/07","15:20",0.2,16.5,97.0,1007.4,278.8,0.5,1.0,311.4,0.02,16.1,19.2,"15:13:12",1
"22/10/07","15:30",0.0,16.5,97.0,1007.6,283.9,0.6,1.0,305.2,0.02,16.1,19.2,"15:25:12",1
"22/10/07","15:40",0.2,16.7,97.0,1007.6,301.0,0.7,1.4,330.4,0.02,16.3,19.1,"15:37:52",1
"22/10/07","15:50",0.0,16.6,97.1,1007.4,285.5,1.0,1.6,303.7,0.02,16.2,19.1,"15:48:08",1
"22/10/07","16:00",0.0,16.8,97.0,1007.8,287.0,0.7,1.3,322.8,0.03,16.4,19.0,"15:50:08",1
"22/10/07","16:10",0.0,16.7,97.0,1007.8,289.7,0.7,1.2,303.2,0.01,16.3,19.2,"16:03:04",1
"22/10/07","16:20",0.0,16.9,97.1,1007.6,286.9,0.3,0.8,264.7,0.01,16.5,19.1,"16:19:20",1
"22/10/07","16:30",0.0,16.8,97.0,1007.8,283.6,0.7,1.1,316.7,0.01,16.4,19.1,"16:21:44",1
"22/10/07","16:40",0.0,16.8,97.1,1007.8,296.3,0.7,1.6,323.3,0.01,16.4,19.0,"16:37:04",1
"22/10/07","16:50",0.2,16.8,97.1,1007.8,284.5,0.3,1.1,262.3,0.00,16.4,19.1,"16:49:12",1
"22/10/07","17:00",0.0,16.8,97.1,1008.3,292.2,0.6,1.2,319.8,0.01,16.4,19.1,"16:50:32",1
"22/10/07","17:10",0.0,16.9,97.1,1008.1,315.2,1.0,1.7,327.9,0.02,16.5,19.2,"17:03:20",1
"22/10/07","17:20",0.0,17.0,97.2,1008.1,328.2,0.8,1.6,312.4,0.03,16.6,19.1,"17:10:32",1
"22/10/07","17:30",0.0,16.9,97.1,1008.1,321.3,0.8,1.3,339.1,0.00,16.5,19.1,"17:27:04",1
"22/10/07","17:40",0.0,16.7,97.2,1008.1,287.5,0.7,1.1,308.0,0.00,16.3,19.3,"17:37:44",1
"22/10/07","17:50",0.0,16.8,97.2,1008.3,338.6,0.5,1.1,352.4,0.00,16.4,19.1,"17:46:24",1
"22/10/07","18:00",0.0,16.7,97.2,1008.8,350.5,0.3,0.9,349.6,0.00,16.3,19.4,"17:55:12",1
"22/10/07","18:10",0.0,16.6,97.2,1008.3,280.7,0.3,0.8,265.8,0.00,16.2,19.2,"18:03:52",1
"22/10/07","18:20",0.0,16.6,97.2,1008.6,305.7,0.6,1.0,322.1,0.00,16.2,19.2,"18:17:20",1
"22/10/07","18:30",0.0,16.5,97.2,1008.6,334.0,0.7,1.3,343.0,0.00,16.1,19.2,"18:21:44",1
"22/10/07","18:40",0.0,16.5,97.3,1008.6,325.3,0.5,1.2,356.4,0.00,16.1,19.2,"18:37:28",1
"22/10/07","18:50",0.0,16.4,97.3,1009.0,311.4,0.8,1.1,335.7,0.00,16.0,19.2,"18:40:32",1
"22/10/07","19:00",0.0,16.4,97.4,1009.3,316.7,1.0,1.4,316.3,0.00,16.0,19.2,"18:52:40",1
"22/10/07","19:10",0.0,16.5,97.4,1009.5,321.5,1.0,1.3,319.8,0.00,16.1,19.3,"19:01:28",1
"22/10/07","19:20",0.0,16.5,97.4,1009.3,317.2,0.8,1.4,328.9,0.00,16.1,19.2,"19:10:24",1
"22/10/07","19:30",0.0,16.5,97.4,1009.5,309.1,0.7,1.2,325.3,0.00,16.1,19.2,"19:23:12",1
"22/10/07","19:40",0.0,16.5,97.4,1009.5,271.2,0.5,1.0,263.1,0.00,16.1,19.2,"19:30:32",1
"22/10/07","19:50",0.0,16.4,97.4,1009.5,287.5,0.6,1.1,325.6,0.00,16.0,19.4,"19:48:24",1
"22/10/07","20:00",0.0,16.4,97.4,1009.5,306.3,0.7,1.4,320.3,0.00,16.0,19.2,"19:55:52",1
"22/10/07","20:10",0.0,16.4,97.5,1009.7,307.7,1.0,1.3,315.9,0.00,16.0,19.2,"20:00:48",1
"22/10/07","20:20",0.0,16.4,97.4,1009.7,287.2,1.0,1.7,325.5,0.00,16.0,19.3,"20:12:56",1
"22/10/07","20:30",0.0,16.3,97.5,1010.0,291.3,1.0,1.9,307.3,0.00,15.9,19.4,"20:29:20",1
"22/10/07","20:40",0.0,16.3,97.6,1010.2,318.5,1.2,2.0,309.5,0.00,16.0,19.2,"20:37:04",1
"22/10/07","20:50",0.2,16.3,97.6,1010.2,291.4,0.6,1.7,346.6,0.00,16.0,19.4,"20:40:08",1
"22/10/07","21:00",0.0,16.3,97.6,1010.0,207.2,0.1,0.4,69.0,0.00,16.0,19.2,"20:50:24",1
"22/10/07","21:10",0.2,16.3,97.6,1010.0,358.0,0.3,0.9,339.9,0.00,16.0,19.2,"21:05:20",1
"22/10/07","21:20",0.0,16.3,97.6,1010.0,8.9,0.2,0.5,306.2,0.00,16.0,19.3,"21:12:08",1
"22/10/07","21:30",0.0,16.3,97.7,1010.2,310.7,0.3,1.0,315.4,0.00,16.0,19.2,"21:22:48",1
"22/10/07","21:40",0.0,16.4,97.7,1010.7,276.2,0.6,1.2,342.3,0.00,16.1,19.3,"21:35:44",1
"22/10/07","21:50",0.0,16.4,97.7,1010.7,309.6,0.5,1.2,347.6,0.00,16.1,19.3,"21:47:04",1
"22/10/07","22:00",0.0,16.4,97.7,1010.4,335.9,1.0,1.7,343.8,0.00,16.1,19.4,"21:59:20",1
"22/10/07","22:10",0.0,16.2,97.7,1010.4,318.5,1.2,2.5,308.4,0.00,15.9,19.3,"22:07:12",1
"22/10/07","22:20",0.0,16.2,97.8,1010.4,334.1,1.1,1.9,344.2,0.00,15.9,19.3,"22:13:44",1
"22/10/07","22:30",0.0,16.2,97.9,1010.7,315.2,1.0,2.1,331.8,0.00,15.9,19.5,"22:20:24",1
"22/10/07","22:40",0.0,16.2,97.8,1010.9,304.8,0.8,1.8,341.4,0.00,15.9,19.4,"22:36:32",1
"22/10/07","22:50",0.0,16.1,97.9,1010.9,307.4,1.1,1.7,339.8,0.00,15.8,19.3,"22:48:16",1
"22/10/07","23:00",0.0,16.1,97.9,1011.2,305.7,1.2,2.1,320.4,0.00,15.8,19.1,"22:55:36",1
"22/10/07","23:10",0.0,16.2,98.0,1011.6,306.4,1.1,1.9,329.5,0.00,15.9,19.3,"23:06:32",1
"22/10/07","23:20",0.0,16.3,97.4,1011.9,303.4,0.8,1.7,296.0,0.00,15.9,19.4,"23:10:32",1
"22/10/07","23:30",0.0,16.1,97.9,1011.6,303.7,1.1,2.1,308.8,0.00,15.8,19.3,"23:22:48",1
"22/10/07","23:40",0.0,16.1,97.9,1011.6,315.1,1.1,1.9,342.3,0.00,15.8,19.4,"23:39:20",1
"22/10/07","23:50",0.0,16.1,98.0,1011.4,320.9,1.1,2.4,338.4,0.00,15.8,19.2,"23:40:40",1
"22/10/07","24:00",0.0,16.3,97.5,1011.4,313.6,1.3,2.1,343.8,0.00,15.9,19.3,"23:51:44",1
